C/2019 N1 ( ATLAS )

Japanese version
Home page
Updated on March 26, 2020

---------------------------------------------------------------------

* Profile

Discovery Date July 5, 2019
Magnitude 18.6 mag
Discoverer Asteroid Terrestrial-Impact Last Alert System (ATLAS) search program

* Pictures

* Orbital Elements

Epoch 2020 Dec. 17.0 TT = JDT 2459200.5
T 2020 Dec. 1.77766 TT                                  Rudenko
q   1.7045461            (2000.0)            P               Q
z  -0.0000036      Peri.  193.44454     -0.93824254     +0.25609005
 +/-0.0000050      Node    13.57283     -0.14506341     +0.31925390
e   1.0000062      Incl.   82.42742     -0.31409799     -0.91241155
From 724 observations 2019 June 10-2020 Mar. 18, mean residual 0".8.

* Finding Charts

* Magnitudes Graph

        m1 = 6.5 + 5 log d + 10.0 log r

---------------------------------------------------------------------

The orbital elements are published on M.P.E.C. 2020-F67.
The charts are made with StellaNavigator Ver.10 (AstroArts).
The magnitudes graphs are made with Comet for Windows.

---------------------------------------------------------------------

Copyright(C) Seiichi Yoshida (comet@aerith.net). All rights reserved.